User: anonymous   Login
Location: ČR
(50.0000°N, 15.0000°E)
Time: 02:44:48
(UTC+00:00)
Language:

Tiangong - Orbit

View from above orbital plane
View from above orbital plane
View from above satellite
View from above satellite

Ground track
Ground track

The orbit data is extracted from the following two-line orbital elements,

1 48274U 21035A   21295.78034073 -.00002084  00000-0 -20362-4 0  9990
2 48274  41.4704 224.9553 0006705 240.4277 200.7941 15.60674681 27658
Epoch (UTC): 22 October 2021 18:43:41
Eccentricity: 0.0006705
inclination: 41.4704°
perigee height: 381 km
apogee height: 390 km
right ascension of ascending node: 224.9553°
argument of perigee: 240.4277°
revolutions per day: 15.60674681
mean anomaly at epoch: 200.7941°
orbit number at epoch: 2765

The dashed part of the orbit path shows where the satellite is in the earth's shadow,  

DLR